Theta_e
317 318 319 318 318 319 319 320 320 319 319 317 317 315 312 311 310 310 311 314 322 330 336 337 336 334 335 335 337 338 338 338 336 327 321 318 319 318 321 314 311 310 310 310
317 319 318 320 322 322 321 321 321 318 317 318 317 315 312 311 311 310 311 314 319 327 331 335 335 335 335 336 337 337 337 336 330 326 322 321 323 320 318 314 311 310 310 310
320 319 320 322 322 323 322 322 321 322 320 316 315 317 313 311 310 310 310 313 317 322 337 338 335 335 335 338 338 336 336 334 330 327 326 325 323 322 321 315 311 310 310 310
317 319 322 323 324 323 324 321 323 324 324 323 314 320 314 311 310 311 316 317 326 335 338 337 336 335 336 339 339 336 332 331 331 330 328 329 327 324 324 316 311 310 310 309
312 316 321 324 323 321 323 323 324 323 323 322 321 319 314 313 317 321 319 320 321 333 338 338 336 336 336 337 339 334 332 330 331 333 331 330 330 327 324 314 311 310 309 309
312 314 321 321 320 320 321 325 322 321 322 323 323 318 315 323 323 323 323 322 321 330 332 336 337 336 336 336 337 333 332 332 333 332 329 331 331 329 314 312 312 310 309 309
312 314 318 319 319 320 323 324 325 319 325 327 322 322 316 322 323 324 324 323 324 323 328 333 334 333 335 337 336 333 334 332 331 328 328 331 327 317 314 313 312 309 309 310
314 315 318 316 317 320 324 325 326 324 328 325 323 326 327 319 321 323 321 322 325 325 326 329 334 333 334 337 337 336 335 332 330 327 330 328 318 318 315 315 312 310 310 310
314 316 315 314 315 320 323 326 321 322 322 322 325 324 322 324 324 324 324 322 323 324 325 326 327 330 334 335 334 333 331 330 329 329 325 321 319 315 314 312 312 311 310 309
312 314 313 313 316 319 322 320 327 325 328 321 323 320 322 328 326 324 326 325 322 322 322 323 323 322 327 330 329 331 330 328 327 323 319 316 314 313 313 312 310 310 310 308
311 310 311 311 314 317 314 317 326 323 327 329 322 319 316 316 318 316 321 324 319 317 315 311 309 310 315 319 320 317 320 319 317 311 311 311 310 310 310 310 309 308 307 306
312 309 311 312 311 311 311 314 322 324 326 326 324 321 311 312 313 314 313 313 312 312 311 308 307 307 307 309 311 310 311 311 311 310 310 309 308 308 307 306 305 304 304 302
311 309 311 310 309 309 311 310 315 321 321 323 319 321 312 311 311 311 313 313 311 310 308 307 306 304 306 307 308 308 308 308 308 307 306 305 305 304 303 303 302 302 301 300
311 310 310 311 311 311 312 312 311 317 309 310 316 313 311 313 312 311 311 309 309 309 307 305 303 302 304 304 305 305 304 305 304 304 304 303 302 302 301 300 300 299 299 298
306 309 309 310 310 311 311 312 312 312 311 309 310 312 311 312 312 311 310 310 309 308 306 304 302 301 302 302 303 304 303 304 304 303 302 301 301 300 300 299 299 299 298 298
301 306 309 311 312 312 314 312 312 309 307 310 312 312 310 309 309 309 309 309 308 307 305 303 302 301 301 302 302 303 303 303 303 302 301 300 300 300 299 299 299 299 298 298
302 307 309 312 310 313 315 311 311 308 311 309 312 312 310 308 308 309 309 308 307 305 303 302 301 301 302 302 302 302 302 302 302 301 300 300 299 299 299 299 298 298 298 298
302 307 308 310 311 317 312 310 309 311 311 311 311 310 308 307 306 305 305 306 305 304 302 300 300 301 301 301 301 301 301 301 300 299 299 299 299 299 298 298 298 298 297 297
301 305 309 311 313 313 312 310 308 309 310 311 310 309 307 305 306 307 303 305 304 302 300 300 301 301 300 300 300 300 299 299 299 298 299 298 298 298 298 298 297 297 297 296
304 305 309 309 314 317 313 309 307 306 307 309 309 308 307 307 309 305 303 302 300 300 300 300 300 300 300 299 300 299 299 299 298 298 298 298 298 298 298 297 296 296 296 296
310 309 309 309 309 312 311 309 308 307 307 308 308 307 306 307 305 302 301 300 300 300 300 300 300 300 299 299 300 299 298 298 298 298 298 298 298 297 297 296 295 295 295 294
311 310 309 309 312 316 310 309 310 307 306 308 308 308 306 303 302 301 301 300 299 299 299 299 299 298 298 299 299 298 298 298 298 298 298 297 296 296 295 295 294 293 292 291
312 310 311 311 313 310 309 308 308 305 307 308 308 306 303 302 302 301 300 298 298 298 298 298 298 298 299 299 299 298 298 298 297 297 296 295 295 294 293 292 291 291 290 290
307 307 310 311 311 311 308 307 307 305 306 307 307 305 302 302 301 300 299 298 298 298 298 298 298 297 297 298 298 298 297 297 296 295 294 293 293 292 291 290 290 290 291 291
303 305 306 307 306 307 308 306 306 307 307 307 305 304 303 302 301 300 299 297 298 298 298 298 298 297 297 298 297 297 296 296 295 293 293 293 291 290 290 290 289 290 290 290
303 305 306 306 306 307 306 307 306 307 307 305 305 305 303 302 301 300 298 299 298 298 298 298 297 298 297 296 296 295 294 294 293 293 292 291 289 289 288 288 289 289 288 288
Wind_Speed
1 2 5 9 6 5 6 5 9 9 7 7 11 10 8 9 6 9 9 9 10 16 22 24 31 38 39 37 37 47 47 46 45 45 40 36 33 28 23 23 21 21 23 22
5 3 7 7 8 6 7 7 11 8 5 7 9 16 7 7 8 8 9 8 12 6 8 14 27 34 36 37 44 44 47 49 45 43 37 34 35 30 26 21 21 22 23 23
3 5 6 3 5 7 5 7 6 11 5 5 5 15 5 6 6 6 9 7 11 9 11 15 21 33 34 32 37 37 43 45 44 42 38 28 29 24 20 20 22 23 23 23
5 3 4 4 5 4 8 6 12 14 7 6 2 11 4 6 9 5 8 9 8 7 12 16 20 22 25 26 28 30 38 42 41 42 36 34 28 25 25 31 27 24 22 23
7 4 4 3 5 3 10 12 8 12 13 4 5 3 6 4 5 7 9 9 9 9 18 19 20 30 36 28 17 26 32 32 35 35 34 34 29 27 25 29 25 23 22 21
6 4 2 3 7 8 13 6 13 3 1 3 7 4 5 4 8 11 13 10 9 6 11 13 20 28 28 31 27 28 28 25 26 31 30 30 24 22 22 27 25 25 24 22
7 6 5 2 8 5 5 6 4 5 4 3 11 5 5 7 10 7 13 10 7 8 0 8 14 15 21 26 24 27 28 21 27 27 27 25 23 24 26 26 25 25 23 21
4 9 2 4 4 5 4 3 1 3 5 5 5 3 5 13 8 7 11 10 12 13 9 10 9 17 18 19 21 22 24 22 23 22 30 25 20 19 25 23 24 24 21 19
4 6 6 5 5 1 3 4 2 1 3 4 2 2 3 4 9 10 13 14 11 10 9 12 11 12 10 13 17 18 20 22 25 25 20 19 18 25 22 20 19 21 19 18
2 6 3 8 5 4 1 6 1 2 5 5 6 4 5 4 4 7 5 7 10 6 7 8 7 13 19 18 21 22 22 22 22 20 19 18 18 20 18 19 20 19 19 19
1 2 8 4 3 5 3 3 1 4 1 3 4 4 6 4 0 1 6 7 6 6 7 8 8 16 20 22 24 24 24 23 24 23 24 24 23 22 21 21 20 21 18 15
1 2 5 7 8 7 4 3 3 3 6 0 1 4 5 5 6 6 7 8 4 3 9 9 12 16 20 21 22 23 24 26 24 24 25 24 23 22 21 20 16 12 11 9
1 1 5 10 6 6 4 6 3 3 3 3 2 3 3 6 6 7 7 7 7 9 10 8 10 12 17 22 22 23 23 24 24 25 26 25 24 22 19 16 13 10 8 6
3 2 6 5 9 3 7 13 10 3 2 2 3 3 4 4 3 3 5 6 6 6 7 6 7 10 18 20 24 25 25 26 26 26 24 23 20 18 15 12 10 8 6 5
3 3 4 8 15 10 13 11 5 4 3 3 3 1 5 4 6 4 4 5 6 6 6 6 6 8 18 24 25 25 24 24 23 23 21 18 15 12 10 8 7 5 3 2
5 4 5 6 3 4 3 3 3 3 3 3 3 3 4 4 5 4 7 7 6 6 6 7 7 12 17 23 23 22 22 21 19 17 15 12 11 8 7 5 3 2 1 2
2 2 3 5 6 8 2 3 1 2 1 2 2 2 2 5 5 2 3 7 8 8 7 7 7 13 18 18 19 19 19 18 15 13 11 10 8 8 5 3 3 2 2 3
3 2 2 4 6 1 5 1 4 5 1 1 2 2 4 5 4 2 2 7 8 8 8 7 13 16 16 18 18 19 16 14 12 11 10 8 7 5 4 2 2 2 3 5
7 3 1 0 2 5 3 3 4 3 2 2 4 3 4 5 1 3 4 5 7 7 10 16 19 19 20 20 19 18 15 13 12 11 9 7 5 3 1 1 2 5 8 9
5 2 3 1 0 4 4 2 1 3 4 4 5 6 6 3 2 4 3 3 7 15 20 25 25 23 21 17 15 15 14 13 11 8 5 2 1 1 2 2 5 7 9 10
3 2 5 3 3 7 6 2 2 2 6 4 5 5 6 5 4 4 6 7 13 18 23 24 21 18 16 15 14 15 12 10 6 4 2 1 0 1 1 2 5 8 7 7
6 6 4 3 2 6 5 3 5 5 2 4 3 3 3 4 6 6 6 8 13 17 20 22 21 16 12 13 14 13 10 6 4 2 3 2 1 1 2 5 5 6 6 7
3 5 3 8 5 4 5 6 3 6 5 4 4 4 7 8 5 7 7 7 12 19 20 20 20 17 14 13 12 11 7 4 4 5 5 4 3 4 6 7 6 4 7 7
3 2 3 2 3 3 5 2 4 6 6 5 5 6 8 8 8 7 7 7 11 17 20 19 18 16 14 12 10 9 6 5 5 6 5 5 6 8 7 5 5 8 4 7
5 1 2 6 6 7 5 6 4 3 3 4 5 7 9 9 9 9 6 8 16 18 18 19 18 16 14 12 10 7 5 2 4 5 5 7 7 8 9 7 6 8 8 11
6 11 7 10 7 5 4 3 5 6 6 7 7 6 6 10 11 9 7 17 20 19 18 18 17 17 16 13 10 6 3 3 3 3 6 5 8 11 10 9 10 9 12 13
Wind_Direction
221 70 252 252 242 257 277 279 272 288 274 276 276 277 260 277 284 279 274 245 220 208 218 191 180 179 177 171 172 177 176 177 182 175 171 167 165 172 178 184 189 191 184 186
8 275 264 288 304 322 305 306 297 286 264 290 284 282 245 246 260 238 258 237 247 183 181 160 173 174 175 175 176 178 177 177 176 175 171 173 174 176 177 187 192 195 188 186
238 257 314 4 326 316 293 269 272 280 282 268 278 280 284 267 267 266 278 257 232 216 153 157 166 175 176 180 177 177 180 179 177 179 179 174 172 171 178 189 198 195 195 195
273 274 300 319 304 293 306 250 281 285 295 280 127 288 271 273 285 295 330 345 258 161 150 159 167 172 176 186 185 178 172 178 182 185 183 182 172 168 194 188 196 201 197 197
279 285 313 300 264 295 263 299 278 291 284 344 277 240 281 300 303 330 320 317 324 192 154 161 167 166 172 218 188 177 174 179 186 190 194 188 179 192 201 188 190 204 196 196
264 264 251 245 290 270 283 314 329 346 74 262 334 241 303 28 317 314 320 304 310 191 179 169 164 170 180 184 188 174 173 181 195 201 194 186 186 201 198 189 189 198 195 194
328 296 292 267 312 319 20 359 319 7 31 301 317 321 268 340 344 310 314 320 35 47 298 145 145 154 170 172 170 168 178 193 205 199 194 188 202 196 196 189 193 191 188 189
12 325 331 345 248 277 40 93 40 320 335 297 342 321 322 312 318 346 15 34 54 49 49 71 134 160 166 172 174 174 181 186 184 190 198 191 195 209 203 194 196 200 193 191
344 281 303 269 283 36 333 22 124 192 236 311 285 254 292 347 24 12 28 39 36 59 53 66 67 86 137 146 146 144 151 151 172 180 185 184 199 197 201 193 197 200 194 187
306 297 256 305 2 38 294 154 311 63 352 350 322 30 349 42 348 3 37 40 28 6 66 66 63 77 102 119 119 137 145 151 153 157 169 175 181 184 183 188 192 186 171 160
62 136 288 341 18 325 329 333 41 124 307 340 317 346 10 13 171 191 62 22 38 357 63 62 56 76 100 106 114 122 133 140 141 136 138 139 143 147 147 146 143 144 146 150
282 163 288 261 281 263 305 305 104 82 304 130 142 303 27 23 22 53 63 101 128 107 79 73 70 73 81 96 107 108 117 125 127 129 127 124 125 126 126 126 129 132 136 138
306 349 331 344 2 8 2 320 331 115 56 315 57 312 68 59 40 18 70 55 45 51 58 59 66 69 86 96 101 112 119 118 122 122 119 118 119 119 118 119 124 131 134 146
99 162 179 218 247 288 308 311 305 125 86 282 250 309 31 108 118 87 68 65 63 67 75 71 63 71 85 92 103 105 109 116 115 114 113 112 113 115 116 116 120 125 126 131
74 249 213 242 260 275 258 265 320 47 294 118 306 42 326 178 159 153 121 92 89 95 89 87 89 89 93 96 103 111 113 114 115 113 113 112 114 114 114 110 102 99 97 80
357 285 350 292 242 319 251 341 43 21 6 105 101 48 327 68 88 116 140 127 117 108 99 103 104 104 105 109 110 113 117 119 121 119 117 119 115 107 100 98 96 88 28 323
266 209 14 275 321 319 22 320 15 91 347 264 177 130 117 65 83 84 169 152 147 142 134 127 128 127 126 123 125 126 131 130 124 121 121 119 115 114 112 106 95 69 31 359
210 151 148 272 335 126 249 56 113 121 344 25 92 101 140 149 152 95 263 170 154 141 132 130 131 126 126 126 125 131 135 129 123 120 123 122 125 119 112 96 51 12 347 334
182 121 275 101 283 290 259 208 189 201 276 246 164 173 164 166 150 347 4 180 156 147 139 138 139 134 132 129 127 122 119 118 114 114 113 111 115 119 89 23 360 335 325 319
116 99 136 101 140 232 242 202 101 99 286 224 176 189 184 172 114 255 349 107 101 118 129 129 129 128 128 129 129 119 114 113 106 105 101 97 89 39 14 349 328 323 315 309
140 167 195 225 251 284 242 180 118 124 239 192 175 193 164 185 204 164 115 76 109 127 131 132 129 123 128 133 128 117 118 108 103 80 50 29 280 203 269 321 323 318 311 306
174 160 202 157 199 270 187 96 179 215 216 185 166 176 143 129 122 125 119 115 122 124 133 131 120 112 123 135 131 120 111 105 87 34 342 323 136 45 341 332 336 326 322 326
244 193 202 184 214 236 225 206 186 166 166 182 171 166 152 144 158 152 141 132 138 140 140 136 125 112 111 125 128 118 102 98 76 75 73 73 63 13 352 340 337 338 333 331
243 151 214 25 275 249 245 252 192 181 187 172 164 163 163 161 157 153 144 139 141 147 145 143 134 122 119 123 115 110 106 95 92 88 76 42 13 350 350 3 354 339 336 338
203 54 216 258 280 293 253 220 210 203 171 155 142 167 177 153 166 162 154 153 157 157 156 154 144 136 134 131 118 108 99 90 82 73 40 13 3 359 351 345 343 341 329 325
188 218 209 252 201 185 227 307 178 179 197 200 166 142 165 164 163 158 157 163 161 160 163 154 145 142 142 136 122 104 72 71 91 44 14 13 355 345 344 341 328 332 335 329